Temp
37 37 35 36 36 36 35 35 35 35 35 35 36 36 35 37 38 38 40 40 38 39 40 42 46 50 52 53 53 53 52 50 43 34 35 33 34 35 38 35 41 44 49
37 36 35 36 35 34 32 33 34 33 34 33 34 34 34 35 37 37 37 38 37 38 37 41 43 49 49 52 52 51 52 50 39 33 32 33 33 33 33 33 33 34 39
35 35 34 32 31 30 30 31 32 32 32 33 34 33 33 33 34 35 37 37 37 39 39 39 40 45 46 48 51 50 50 40 40 35 32 33 32 34 32 32 32 33 35
33 32 30 30 30 30 30 31 31 32 32 32 33 33 33 33 33 34 34 35 35 36 36 38 38 41 42 44 46 44 41 40 35 36 33 33 33 32 33 32 31 32 31
29 28 28 29 30 29 30 30 31 32 32 32 32 33 33 32 34 34 34 35 36 36 36 36 37 37 38 42 42 40 39 39 37 36 31 30 29 28 29 31 28 25 24
26 27 28 28 29 29 29 29 31 32 32 32 31 32 33 33 35 37 36 35 34 35 35 36 36 36 38 41 42 42 43 38 35 34 31 31 29 31 29 28 26 26 24
26 27 27 29 28 29 29 29 30 31 32 31 31 32 32 33 38 37 37 34 34 35 35 35 34 34 36 37 39 39 38 41 40 37 33 33 29 31 29 27 28 29 23
27 28 29 28 28 29 28 29 31 31 31 30 31 32 31 33 36 36 34 32 32 32 33 33 33 33 34 33 32 31 31 31 33 34 35 33 33 32 31 30 27 20 21
26 27 27 27 27 28 28 30 31 31 31 30 31 31 31 32 34 34 33 31 31 30 31 32 33 32 34 35 31 29 29 30 34 35 34 34 34 33 28 25 23 23 19
25 25 25 26 26 25 29 30 31 31 31 31 30 31 32 32 34 33 32 30 29 29 30 32 32 33 34 33 30 29 27 28 29 30 30 31 30 30 31 29 28 26 19
24 25 26 27 27 28 30 31 31 31 30 30 29 30 30 31 32 33 33 31 30 29 29 30 31 33 33 32 30 27 26 26 25 23 23 23 22 23 24 24 26 28 25
25 26 27 27 29 31 30 32 31 31 31 29 29 29 29 28 31 33 33 32 32 30 29 30 31 32 32 31 29 30 28 25 24 22 22 20 18 18 18 18 18 19 20
25 24 26 28 29 30 30 31 32 31 30 29 28 28 28 29 28 28 31 32 31 29 29 30 30 30 30 29 29 27 25 25 24 22 20 18 18 16 16 16 15 15 14
25 26 27 27 28 29 31 30 31 29 29 27 28 28 28 29 28 28 27 26 26 25 25 25 26 25 24 21 21 20 20 24 23 19 16 16 16 18 18 21 19 19 18
25 25 27 28 27 29 29 30 30 31 30 28 27 28 28 27 29 30 28 26 25 24 24 24 24 22 20 19 19 19 21 21 18 18 17 17 17 17 16 18 18 18 20
26 27 29 29 28 28 30 29 32 33 33 33 32 31 31 32 32 31 31 30 29 27 24 22 21 21 20 20 18 17 18 17 17 18 18 18 17 17 16 15 17 19 19
28 29 29 26 28 28 27 27 28 27 30 31 32 33 32 32 32 31 29 29 28 26 22 22 21 21 20 19 20 20 18 17 15 19 19 19 18 18 17 16 17 17 16
26 23 28 28 28 28 27 27 26 27 27 27 25 28 32 32 31 31 29 29 26 24 22 21 20 20 20 20 20 19 17 15 17 18 18 17 16 16 16 17 17 16 17
26 28 27 28 27 27 26 25 25 25 26 26 25 25 21 26 30 30 27 27 25 24 22 22 22 21 21 20 20 19 18 18 18 17 17 16 16 17 16 17 17 11 12
25 24 24 26 24 24 24 25 25 25 25 25 25 27 26 23 27 26 25 24 25 25 23 24 22 22 22 21 20 19 18 15 16 16 17 16 16 15 15 14 14 14 11
27 24 22 24 25 24 24 23 25 25 25 25 27 26 27 28 27 27 26 25 24 24 24 23 23 22 21 20 19 19 18 19 17 16 16 15 14 12 13 15 14 11 13
27 25 22 23 23 23 23 24 24 23 24 24 26 26 27 26 27 28 28 27 27 25 24 24 23 23 22 20 19 19 17 17 17 15 15 13 13 13 13 13 12 12 12
26 25 23 23 23 21 20 22 21 22 23 23 25 25 26 27 28 28 28 28 27 25 23 21 21 20 20 18 19 19 18 18 18 17 16 15 14 15 14 14 13 12 12
25 24 23 22 20 21 22 21 21 20 22 23 23 24 26 27 27 27 27 26 21 19 17 16 15 16 16 15 17 17 17 16 17 16 16 16 15 15 14 13 13 12 12
23 23 23 22 20 20 21 21 22 22 22 22 24 24 26 27 27 22 19 17 15 15 14 12 13 13 13 13 13 14 15 15 16 16 16 16 15 14 13 12 12 11 10
21 21 22 22 22 21 21 21 22 23 22 24 25 24 22 18 17 16 14 14 13 13 13 14 14 13 13 14 15 15 15 16 16 15 15 15 13 12 11 10 9 9 8
MSLP
1012.74 1012.22 1011.65 1010.94 1010.37 1009.72 1009.10 1008.35 1007.61 1006.86 1006.23 1005.46 1004.71 1004.00 1003.52 1002.88 1002.44 1002.42 1002.23 1002.18 1002.12 1001.99 1001.91 1001.61 1001.03 1001.07 1000.75 1000.88 1001.19 1001.21 1001.15 1002.25 1002.96 1004.81 1005.64 1006.35 1006.77 1006.86 1007.32 1007.49 1007.32 1007.51 1007.81
1012.58 1011.98 1011.31 1010.67 1010.08 1009.31 1008.68 1007.94 1007.06 1006.15 1005.40 1004.71 1003.80 1002.94 1002.32 1001.82 1001.39 1001.30 1001.21 1001.24 1001.33 1001.13 1000.99 1000.96 1000.84 1000.75 1000.30 1000.24 1000.38 1000.17 1000.55 1001.33 1002.47 1004.36 1005.55 1006.24 1006.46 1006.89 1007.20 1007.82 1008.24 1007.76 1007.82
1012.50 1011.86 1011.09 1010.57 1009.87 1009.04 1008.19 1007.34 1006.43 1005.55 1004.54 1003.69 1002.89 1001.84 1001.12 1000.71 1000.37 1000.22 1000.18 1000.24 1000.35 1000.25 1000.39 1000.55 1000.49 1000.41 1000.07 999.90 999.44 999.56 1000.13 1001.01 1001.65 1003.29 1004.78 1005.79 1006.82 1007.19 1007.92 1008.47 1008.58 1008.84 1008.87
1012.55 1011.91 1011.23 1010.56 1009.63 1008.79 1007.99 1007.07 1006.20 1005.25 1004.10 1003.06 1002.07 1000.95 1000.12 999.72 999.43 999.42 999.52 999.64 999.58 999.76 999.85 999.89 999.95 999.97 1000.06 999.55 999.03 999.19 999.79 1000.92 1001.75 1002.81 1003.67 1005.49 1006.43 1007.33 1007.78 1008.21 1009.23 1009.93 1010.26
1012.66 1011.89 1011.19 1010.43 1009.54 1008.70 1007.83 1007.04 1006.01 1004.93 1003.92 1002.90 1001.63 1000.34 999.42 998.81 998.52 998.51 998.70 998.91 999.09 999.21 999.37 999.38 999.38 999.49 999.63 999.34 998.64 999.02 999.53 1000.21 1001.22 1002.41 1004.10 1005.09 1006.29 1007.09 1007.36 1008.26 1009.60 1011.13 1011.98
1012.61 1011.81 1011.02 1010.30 1009.43 1008.64 1007.87 1006.99 1005.96 1004.91 1003.97 1002.98 1001.72 1000.49 999.35 998.22 997.61 997.70 998.00 998.32 998.64 998.86 998.88 998.79 998.73 998.98 999.07 998.73 998.29 998.28 998.19 999.33 1000.85 1001.92 1003.30 1004.00 1005.38 1006.06 1007.65 1007.94 1009.56 1011.10 1013.07
1012.38 1011.70 1010.94 1010.30 1009.47 1008.71 1007.95 1007.10 1006.18 1005.20 1004.19 1003.17 1002.01 1000.90 999.77 998.39 996.80 996.86 997.33 997.90 998.12 998.19 998.23 998.34 998.47 998.46 998.40 998.57 998.53 998.79 999.27 999.34 999.68 1000.43 1002.00 1003.34 1004.82 1005.43 1006.42 1008.40 1009.44 1010.69 1012.33
1012.14 1011.60 1010.99 1010.35 1009.73 1008.97 1008.19 1007.40 1006.46 1005.56 1004.65 1003.76 1002.70 1001.62 1000.59 999.54 998.31 997.61 997.81 998.16 998.31 998.19 998.19 998.36 998.44 998.51 998.67 998.88 999.09 999.68 1000.32 1000.74 1000.74 1001.48 1002.34 1003.54 1004.21 1005.29 1006.28 1007.67 1009.55 1011.92 1013.22
1012.21 1011.79 1011.23 1010.64 1010.16 1009.31 1008.56 1007.78 1006.91 1006.04 1005.28 1004.57 1003.51 1002.48 1001.50 1000.66 999.82 999.26 999.04 999.06 998.99 999.01 999.00 999.01 999.06 999.37 999.60 999.51 999.82 1000.52 1001.23 1002.02 1002.54 1002.52 1003.29 1004.03 1005.08 1005.92 1006.88 1008.31 1010.20 1012.05 1014.11
1012.24 1011.79 1011.31 1010.76 1010.26 1009.71 1009.07 1008.36 1007.65 1006.82 1006.11 1005.45 1004.55 1003.56 1002.69 1001.87 1001.04 1000.55 1000.20 1000.16 1000.03 999.98 999.98 999.98 1000.10 1000.18 1000.38 1000.59 1000.80 1001.55 1002.31 1003.53 1003.72 1004.29 1005.07 1006.03 1006.95 1007.54 1007.65 1008.41 1009.90 1011.57 1013.44
1011.97 1011.74 1011.37 1010.83 1010.21 1009.82 1009.14 1008.59 1008.03 1007.47 1006.77 1006.14 1005.51 1004.82 1003.98 1003.28 1002.65 1001.98 1001.48 1001.16 1001.10 1000.99 1001.11 1001.29 1001.50 1001.36 1001.47 1001.67 1002.02 1002.77 1003.31 1004.42 1005.28 1005.65 1006.89 1007.66 1008.25 1008.30 1009.23 1010.15 1010.58 1011.34 1012.15
1011.51 1011.49 1011.28 1010.93 1010.37 1009.89 1009.27 1008.64 1008.10 1007.61 1007.23 1006.89 1006.40 1005.84 1005.50 1005.17 1004.41 1003.70 1003.14 1002.74 1002.55 1002.04 1002.47 1002.73 1002.81 1002.65 1002.75 1003.14 1003.62 1004.18 1004.92 1005.18 1005.73 1006.91 1008.27 1009.10 1009.67 1009.68 1011.32 1012.10 1012.29 1012.91 1012.47
1010.95 1011.01 1010.98 1010.78 1010.46 1010.03 1009.62 1009.14 1008.57 1008.17 1007.68 1007.43 1007.22 1006.99 1006.71 1006.38 1006.09 1005.76 1004.96 1004.51 1004.25 1004.04 1004.25 1004.39 1004.40 1004.41 1004.61 1004.80 1005.56 1005.94 1006.09 1006.53 1007.82 1009.20 1009.72 1010.16 1010.30 1010.94 1012.24 1013.00 1013.69 1014.37 1014.60
1010.66 1010.55 1010.69 1010.93 1010.86 1010.62 1010.19 1009.87 1009.56 1009.25 1008.84 1008.44 1008.04 1007.78 1007.48 1007.15 1006.92 1006.77 1006.56 1006.39 1006.35 1006.29 1006.25 1006.15 1006.15 1006.27 1006.58 1007.07 1007.41 1007.96 1008.49 1008.82 1009.30 1009.89 1010.36 1010.93 1011.31 1011.95 1012.83 1013.69 1014.31 1014.40 1014.54
1010.48 1010.10 1010.08 1010.07 1010.31 1010.29 1010.20 1009.98 1009.71 1009.55 1009.44 1009.15 1008.96 1008.67 1008.35 1008.12 1008.07 1007.77 1007.30 1007.21 1007.37 1007.59 1007.44 1007.33 1007.38 1007.62 1008.12 1008.78 1009.28 1009.55 1009.66 1009.86 1010.25 1010.73 1010.90 1011.33 1012.05 1012.71 1013.26 1014.07 1014.59 1014.53 1014.33
1010.21 1010.25 1009.92 1010.03 1010.26 1010.37 1010.36 1010.37 1010.20 1009.89 1009.71 1009.48 1009.24 1008.90 1008.51 1008.34 1008.42 1008.34 1008.17 1007.99 1007.84 1007.88 1007.91 1008.18 1008.65 1009.02 1009.33 1009.72 1009.94 1010.14 1010.34 1010.55 1010.80 1011.00 1011.45 1012.07 1012.68 1013.22 1013.92 1014.82 1014.58 1014.02 1014.04
1008.87 1009.30 1009.68 1009.87 1009.91 1009.90 1009.93 1009.96 1010.08 1010.46 1010.14 1009.85 1009.66 1009.44 1009.27 1008.98 1008.85 1008.84 1008.91 1008.83 1008.80 1008.75 1008.95 1009.18 1009.39 1009.68 1009.94 1010.14 1010.27 1010.45 1010.81 1011.19 1011.37 1011.47 1011.81 1012.34 1013.00 1013.52 1013.82 1013.95 1013.86 1013.98 1014.42
1008.34 1008.47 1008.93 1009.16 1009.32 1009.50 1009.70 1009.84 1010.00 1010.02 1010.04 1010.05 1010.18 1009.89 1009.42 1009.23 1009.12 1009.09 1009.04 1008.84 1008.95 1009.26 1009.52 1009.71 1010.02 1010.38 1010.65 1010.83 1011.05 1011.27 1011.71 1012.12 1012.16 1012.29 1012.59 1012.85 1013.16 1013.34 1013.54 1013.60 1013.80 1014.10 1014.51
1007.65 1007.85 1008.14 1008.39 1008.70 1009.06 1009.45 1009.60 1009.61 1009.75 1009.83 1009.92 1010.09 1010.08 1009.97 1009.74 1009.43 1009.41 1009.58 1009.46 1009.54 1009.72 1009.98 1010.14 1010.39 1010.64 1010.83 1011.00 1011.19 1011.41 1011.70 1012.06 1012.26 1012.41 1012.45 1012.51 1012.78 1013.06 1013.34 1013.68 1014.04 1014.61 1014.94
1006.74 1007.06 1007.59 1008.10 1008.54 1008.82 1009.03 1009.25 1009.42 1009.41 1009.39 1009.48 1009.62 1009.62 1009.79 1010.13 1009.70 1009.74 1009.85 1009.84 1009.85 1009.96 1010.07 1010.20 1010.47 1010.68 1010.80 1011.00 1011.19 1011.44 1011.66 1011.98 1012.05 1012.13 1012.34 1012.73 1013.04 1013.16 1013.20 1013.50 1013.82 1014.04 1014.53
1005.51 1006.29 1006.83 1007.48 1007.80 1007.97 1008.11 1008.27 1008.39 1008.69 1008.91 1009.07 1009.02 1008.98 1008.85 1008.97 1009.01 1009.04 1009.09 1009.23 1009.40 1009.51 1009.76 1010.04 1010.23 1010.43 1010.59 1010.77 1011.04 1011.24 1011.37 1011.38 1011.64 1011.84 1012.02 1012.43 1012.79 1013.02 1013.29 1013.32 1013.46 1013.70 1013.86
1004.62 1005.28 1006.05 1006.58 1007.04 1007.46 1007.63 1007.97 1008.23 1008.32 1008.33 1008.33 1008.30 1008.33 1008.34 1008.44 1008.28 1008.24 1008.37 1008.52 1008.85 1009.10 1009.32 1009.49 1009.64 1009.95 1010.21 1010.43 1010.59 1010.64 1010.72 1010.93 1011.10 1011.50 1011.77 1012.07 1012.28 1012.51 1012.64 1012.83 1013.09 1013.30 1013.55
1003.74 1004.54 1005.39 1005.96 1006.56 1007.12 1007.53 1007.62 1007.89 1008.16 1008.19 1008.15 1008.03 1008.04 1008.06 1008.07 1008.18 1008.27 1008.24 1008.33 1008.58 1008.93 1009.27 1009.50 1009.52 1009.68 1009.92 1010.16 1010.26 1010.37 1010.44 1010.45 1010.56 1010.83 1011.17 1011.38 1011.53 1011.74 1012.04 1012.32 1012.67 1012.93 1013.25
1003.33 1003.66 1004.45 1005.25 1006.12 1006.46 1006.68 1007.07 1007.52 1007.84 1007.83 1008.00 1008.01 1007.92 1007.84 1007.82 1007.72 1007.73 1008.00 1008.59 1009.07 1009.37 1009.60 1009.81 1009.88 1009.82 1009.82 1009.90 1009.96 1010.07 1010.16 1010.30 1010.45 1010.53 1010.78 1010.99 1011.18 1011.47 1011.66 1012.04 1012.50 1012.89 1013.26
1003.43 1003.74 1004.28 1004.89 1005.39 1006.13 1006.64 1006.73 1006.87 1007.13 1007.17 1007.22 1007.63 1007.64 1007.55 1007.59 1007.77 1008.09 1008.55 1008.97 1009.41 1009.68 1009.88 1010.03 1010.24 1010.21 1010.14 1010.14 1010.16 1010.13 1010.18 1010.37 1010.53 1010.61 1010.70 1011.01 1011.24 1011.46 1011.72 1012.06 1012.46 1012.87 1013.26
1003.72 1004.08 1004.44 1004.91 1005.33 1005.75 1006.04 1006.49 1006.61 1006.65 1007.00 1007.06 1007.38 1007.65 1007.86 1008.19 1008.59 1008.95 1009.38 1009.62 1009.79 1010.00 1010.19 1010.30 1010.28 1010.34 1010.37 1010.25 1010.25 1010.35 1010.32 1010.26 1010.44 1010.62 1010.78 1011.03 1011.33 1011.61 1011.88 1012.15 1012.55 1012.93 1013.36
Wind_Speed
12 13 13 14 14 14 14 15 16 15 16 18 17 16 17 19 16 15 17 16 16 15 14 13 14 16 11 11 10 11 10 8 3 1 2 2 4 6 3 2 4 7 10
12 13 14 14 15 14 14 15 15 15 15 16 18 16 15 17 15 16 17 13 17 16 9 13 16 13 13 13 11 13 12 9 5 4 2 2 2 2 4 5 3 3 3
11 12 13 14 13 13 14 14 14 14 14 14 16 15 14 15 15 15 15 13 13 12 11 13 10 12 13 14 14 11 9 3 4 5 4 3 2 5 6 5 6 8 7
11 11 12 14 14 13 14 14 15 14 14 14 14 13 12 13 13 13 13 12 11 9 7 9 8 9 14 11 11 9 8 8 4 5 5 4 3 4 5 9 7 5 8
10 10 11 12 12 11 12 13 14 12 12 13 13 12 11 9 9 12 12 12 12 11 11 9 9 9 12 15 8 10 11 7 8 8 5 4 5 8 10 6 8 7 7
8 9 10 11 10 11 12 13 13 13 13 13 12 12 11 6 14 19 13 9 9 12 9 9 8 7 14 19 16 17 18 14 11 8 5 10 10 11 7 10 12 11 6
7 8 9 10 10 11 12 12 12 13 12 12 13 12 12 11 11 17 19 6 6 8 8 6 3 3 5 6 12 14 10 8 10 8 13 10 12 12 14 13 12 10 4
7 8 9 9 10 10 10 11 12 11 12 12 13 12 10 10 18 18 16 8 7 7 7 6 6 7 7 11 12 12 11 8 7 6 8 9 8 11 11 11 12 9 9
5 7 9 9 9 10 11 12 11 11 11 11 12 12 11 11 19 18 13 9 11 11 10 9 10 10 15 18 14 15 13 11 15 21 20 21 22 22 19 14 11 11 4
4 6 7 7 6 7 9 10 10 10 10 9 12 13 14 13 20 20 14 8 11 9 11 13 19 14 18 19 14 13 15 10 13 15 14 17 16 19 21 10 11 10 6
3 5 5 6 6 5 6 6 8 9 10 11 12 13 15 16 17 23 19 10 8 9 9 9 9 22 23 23 19 11 12 13 17 13 10 9 8 10 8 7 5 8 5
3 2 3 4 5 5 5 5 6 7 9 10 10 10 11 13 23 24 24 22 16 12 11 9 12 24 24 24 17 24 22 15 10 9 8 8 7 8 8 7 9 9 8
4 2 2 2 3 5 6 6 6 7 7 7 7 8 9 9 9 21 25 25 24 14 10 18 24 24 23 20 21 19 13 9 8 8 8 7 7 8 9 8 10 11 11
4 4 1 2 4 5 5 6 7 7 7 6 6 6 6 7 7 7 7 8 13 11 13 12 18 19 21 14 11 11 7 5 6 7 7 8 7 6 6 4 4 4 5
5 5 4 4 3 3 3 4 4 5 4 4 5 5 6 7 8 10 8 6 7 7 6 6 7 8 8 7 7 6 6 6 7 7 7 8 7 6 6 4 4 2 4
7 5 4 3 2 2 2 3 8 7 7 8 7 4 4 8 9 11 12 11 8 5 4 5 6 6 6 5 5 5 5 6 5 6 6 6 6 6 5 3 3 3 5
9 7 5 4 4 4 4 3 3 2 5 6 7 7 7 6 7 10 11 14 10 6 5 5 5 4 4 3 3 3 2 3 3 4 4 5 5 5 5 4 4 4 4
9 6 7 6 6 5 4 3 2 2 2 1 4 5 5 4 5 6 5 6 5 6 3 3 3 3 3 3 3 3 4 3 3 3 4 4 4 5 4 3 3 3 3
10 8 8 7 6 5 4 4 4 4 4 2 2 3 2 2 1 4 4 2 2 2 1 1 1 2 2 2 2 2 3 3 2 3 3 3 3 3 3 3 3 4 4
9 8 8 7 6 6 5 5 4 4 3 3 3 3 3 3 3 2 2 2 3 2 3 3 3 3 3 3 3 4 4 4 5 4 4 4 4 4 4 4 4 5 5
9 8 10 7 7 8 7 7 6 6 5 4 4 4 7 4 4 4 3 4 3 3 3 3 3 4 4 4 4 4 4 4 5 5 5 5 5 5 5 5 4 4 4
8 8 8 8 6 7 7 6 6 6 6 6 6 6 10 6 4 4 4 4 3 3 2 3 2 2 2 3 3 4 5 5 4 4 4 4 5 4 4 4 4 5 4
9 9 8 7 7 6 5 6 5 5 6 6 5 5 5 6 6 5 4 3 2 1 1 1 2 2 2 2 3 4 4 4 4 3 4 4 4 4 4 4 4 4 4
8 9 8 7 6 7 7 6 6 6 6 6 5 5 5 5 6 6 4 2 2 2 2 2 3 4 3 2 2 2 3 3 2 2 4 3 3 4 4 4 4 5 4
6 6 6 6 6 6 6 6 6 6 6 6 5 5 5 5 3 2 3 3 2 1 1 1 1 3 3 3 3 3 3 4 4 3 2 4 4 4 4 3 3 4 4
5 5 4 4 5 5 5 5 5 5 5 4 4 1 2 4 4 4 3 3 2 2 2 2 2 2 2 2 2 3 3 3 3 3 2 2 3 3 3 4 6 4 5
Wind_Direction
324 323 318 314 308 305 302 301 298 293 290 286 278 270 262 262 235 237 241 241 244 247 246 259 253 237 233 225 231 228 222 207 198 37 100 117 162 183 123 337 201 216 228
327 326 323 319 315 314 309 303 301 296 291 284 282 273 263 261 242 235 239 241 242 236 251 241 245 248 253 240 224 227 213 200 138 143 135 135 90 123 89 87 11 32 125
329 329 328 323 318 315 312 312 307 303 300 297 292 281 265 255 244 235 236 232 240 242 225 235 245 245 246 240 234 213 196 159 148 140 137 109 99 149 114 88 76 70 63
326 328 326 318 322 322 318 318 318 313 312 312 305 297 273 251 234 229 233 234 225 226 234 225 230 240 245 250 217 190 168 163 131 127 87 119 121 131 135 127 96 89 95
321 321 317 313 321 322 325 323 322 323 323 317 318 322 301 251 233 225 222 227 235 233 229 234 234 238 250 259 185 174 159 157 145 147 133 128 134 151 152 141 117 106 49
317 315 318 319 327 333 331 327 329 336 337 329 334 337 329 304 237 224 213 220 229 240 243 250 250 237 251 245 219 188 178 160 158 147 151 165 167 152 144 136 136 140 123
324 318 324 329 335 341 336 334 346 341 338 341 343 342 341 335 349 221 221 211 226 230 231 222 192 208 169 122 101 93 82 117 153 150 153 161 157 159 142 147 153 154 101
335 333 332 340 339 339 339 343 348 344 350 351 349 352 358 7 43 69 85 85 81 74 78 85 97 77 101 114 102 87 75 64 78 99 131 135 138 144 136 138 117 97 88
335 335 332 337 337 341 342 350 350 353 357 357 360 4 15 28 46 60 69 72 74 69 68 71 87 94 106 108 99 97 82 74 86 92 100 109 120 124 123 117 122 122 99
315 320 318 322 332 338 343 353 350 353 360 5 11 14 22 34 45 57 60 67 68 65 63 65 71 88 92 95 94 97 90 87 95 95 96 102 110 125 123 125 145 143 126
288 305 316 322 327 337 344 2 2 6 9 17 21 20 19 28 38 51 55 58 64 71 64 65 70 82 86 84 86 88 99 103 92 88 92 83 76 71 68 76 81 143 127
241 280 318 332 334 339 352 16 32 26 28 21 21 26 21 18 29 46 53 58 60 67 62 63 72 79 83 88 91 99 100 94 90 84 93 99 92 87 75 69 67 63 52
180 214 280 330 343 346 11 16 28 36 42 39 41 36 23 18 25 29 45 53 54 60 60 71 71 71 74 75 77 79 73 82 101 114 110 90 81 92 104 83 83 88 75
191 182 190 356 9 19 16 19 21 19 21 24 32 42 42 41 32 30 43 50 45 54 57 61 72 75 71 65 54 44 41 76 107 104 103 101 103 100 91 95 110 113 85
219 189 191 168 148 125 89 48 41 50 56 48 35 26 34 42 43 50 50 58 72 81 90 71 65 59 63 64 71 73 77 80 88 103 106 108 108 110 92 87 117 125 105
206 216 199 178 161 129 127 99 48 60 72 79 84 73 65 93 93 76 63 60 61 42 61 73 78 80 89 94 85 78 62 75 86 96 103 117 126 127 130 145 145 122 111
195 192 185 188 188 186 188 205 188 126 56 52 51 73 71 70 77 70 56 54 48 52 66 63 77 84 85 72 80 87 105 80 95 106 119 125 140 140 158 150 129 129 135
202 185 188 190 195 193 198 185 182 208 210 210 356 12 23 76 73 64 50 37 41 45 64 77 101 122 136 137 137 127 128 142 150 144 147 149 157 158 161 161 157 150 157
196 200 196 193 187 184 178 185 194 194 190 176 194 218 312 326 336 122 62 69 110 110 106 119 158 179 185 178 166 155 163 181 176 175 169 162 161 165 172 171 175 179 177
197 193 184 190 176 184 184 194 206 217 213 198 191 177 175 207 192 202 188 192 189 179 184 186 186 194 201 201 192 190 189 188 190 194 191 190 191 194 196 188 194 190 202
188 184 186 188 195 195 192 198 197 194 202 207 220 215 209 195 193 199 199 198 207 200 194 209 205 207 203 201 203 205 213 205 203 201 194 194 189 196 205 203 199 203 215
184 183 181 196 189 195 201 198 200 201 206 208 210 219 228 232 237 221 217 219 211 203 194 210 221 236 245 240 236 228 222 230 222 209 211 199 196 205 203 208 213 213 207
181 179 184 189 197 191 194 207 207 213 221 224 223 219 212 229 251 260 261 252 228 209 66 282 271 254 216 231 244 248 253 248 235 211 216 218 210 215 209 219 220 222 217
189 180 183 185 190 199 200 200 208 216 223 236 233 233 232 230 238 241 230 171 102 47 12 344 326 315 325 313 289 272 269 276 266 238 225 227 223 204 212 209 209 210 212
184 176 178 184 178 193 204 211 212 218 218 217 232 227 230 233 245 106 94 96 83 13 358 331 313 306 293 286 281 279 280 277 253 242 213 219 225 208 195 194 186 187 182
147 150 161 169 180 189 196 209 217 211 220 223 238 310 61 79 84 87 79 77 74 44 23 25 24 351 333 319 327 316 300 270 243 204 185 192 193 184 173 177 176 174 168